Location: 5810 Zion Rd, Cleves, OH 45002, USA
(39.1922°N, 84.7113°W)
Time: 07:27:26
(UTC-05:00)

Vanguard 3 - Pass Details

Date: 17 December 2019
Orbit: 507 x 3264 km, 33.4° (Epoch: 26 January)

Event Time Altitude Azimuth Distance (km) Brightness Sun altitude
Rises 07:33:32 0° 249° (WSW) 3,103 9.7 -4.0°
Reaches altitude 10° 07:35:31 10° 244° (WSW) 2,379 9.2 -3.7°
Maximum altitude 07:40:57 53° 168° (SSE) 1,352 8.6 -2.8°
Drops below altitude 10° 07:50:24 10° 95° (E) 4,078 12.1 -1.2°
Sets 07:54:51 0° 92° (E) 5,551 12.7 -0.4°
